Tracking 28052 objects as of 24-Sep-2023
HD Live streaming from Space Station
objects crossing your sky now

COSMOS 886 DEB

Track COSMOS 886 DEB now!
10-day predictions


NORAD ID: 9824
Int'l Code: 1976-126AL
Perigee: 504.9 km
Apogee: 1,834.8 km
Inclination: 65.8 °
Period: 108.6 minutes
Semi major axis: 7540 km
RCS: 0.0878 m2 (small)
Launch date: December 27, 1976
Source: Commonwealth of Independent States (former USSR) (CIS)
Launch site: TYURATAM MISSILE AND SPACE COMPLEX (TTMTR)

Note: This is SATELLITE DEBRIS
Your satellite tracking list
Your tracking list is empty




NASA's NSSDC Master Catalog

Two Line Element Set (TLE):
1 09824U 76126AL  23266.32922047  .00001825  00000-0  47033-3 0  9999
2 09824  65.8120 229.0072 0881832 125.6941 242.9465 13.25778872222016
Source of the keplerian elements: AFSPC